Weather History for KABQ - January, 2015

Change the Weather History Date:

Saturday, January 31, 2015

  Actual Average Record
Temperature  
Mean Temperature 37 °F 38 °F  
Max Temperature 42 °F 49 °F 72 °F (1911)
Min Temperature 32 °F 28 °F 5 °F (1951)
Degree Days  
Heating Degree Days 28 27  
Month to date heating degree days 851 885  
Since 1 July heating degree days 2321 2642  
Cooling Degree Days 0 0  
Month to date cooling degree days 0 0  
Year to date cooling degree days 0 0  
Moisture  
Dew Point 33 °F    
Average Humidity 90    
Maximum Humidity 100    
Minimum Humidity 79    
Precipitation  
Precipitation 0.14 in 0.01 in 0.51 in (1973)
Month to date precipitation 0.70 0.38  
Year to date precipitation 0.70 0.38  
Snow  
Snow 0.20 in - - ()
Month to date snowfall 4.2  
Since 1 July snowfall 5.4  
Snow Depth 0.00 in    
Sea Level Pressure  
Sea Level Pressure 29.93 in    
Wind  
Wind Speed 3 mph (NNW)    
Max Wind Speed 10 mph    
Max Gust Speed 21 mph    
Visibility 6 miles    
Events Rain , Snow    
T = Trace of Precipitation, MM = Missing Value Source: NWS Daily Summary

Daily Weather History Graph

Daily Weather History Graph

Search for Another Location

Airport or City:

Trip Planner

Search our weather history database for the weather conditions in past years. The results will help you decide how hot, cold, wet, or windy it might be!

Date:

Astronomy

Jan. 31, 2015 Rise Set
Actual Time 7:06 AM MST 5:34 PM MST
Civil Twilight 6:39 AM MST 6:00 PM MST
Nautical Twilight 6:09 AM MST 6:31 PM MST
Astronomical Twilight 5:39 AM MST 7:00 PM MST
Moon 3:03 PM MST (1/31) 4:28 AM MST (1/31)
Length of Visible Light 11h 21m
Length of Day
10h 27m
Waxing Gibbous, 91% of the Moon is Illuminated
Jan 31
Waxing Gibbous
Feb 3
Full
Feb 11
Last Quarter
Feb 18
New
Feb 25
First Quarter

Hourly Weather History & Observations

Time (MST) Temp. Windchill Dew Point Humidity Pressure Visibility Wind Dir Wind Speed Gust Speed Precip Events Conditions
12:52 AM 35.1 °F 31.0 °F 32.0 °F 89% 30.00 in 10.0 mi North 4.6 mph - N/A   Overcast
1:52 AM 36.0 °F 31.1 °F 32.0 °F 86% 29.99 in 10.0 mi North 5.8 mph - 0.00 in Rain Light Rain
2:52 AM 33.1 °F 27.7 °F 32.0 °F 96% 29.96 in 5.0 mi North 5.8 mph - 0.02 in Snow Light Snow
3:52 AM 33.1 °F 28.7 °F 32.0 °F 96% 29.94 in 6.0 mi North 4.6 mph - 0.01 in Snow Light Snow
4:20 AM 33.1 °F 27.7 °F 32.0 °F 96% 29.93 in 5.0 mi NNW 5.8 mph - 0.02 in Snow Light Snow
4:52 AM 33.1 °F 26.9 °F 32.0 °F 96% 29.93 in 5.0 mi NNW 6.9 mph - 0.02 in   Overcast
5:52 AM 33.1 °F 28.7 °F 33.1 °F 100% 29.94 in 8.0 mi NNW 4.6 mph - 0.00 in Rain Light Rain
6:03 AM 33.1 °F 28.7 °F 33.1 °F 100% 29.93 in 0.8 mi NNW 4.6 mph - 0.00 in Rain Light Rain
6:52 AM 33.1 °F 27.7 °F 33.1 °F 100% 29.94 in 0.8 mi NW 5.8 mph - 0.01 in Rain Light Rain
7:30 AM 33.1 °F 30.0 °F 33.1 °F 100% 29.94 in 0.8 mi NW 3.5 mph - 0.02 in Snow Light Snow
7:48 AM 33.8 °F 29.6 °F 32.0 °F 93% 29.94 in 0.8 mi NNW 4.6 mph - 0.04 in Snow Light Snow
7:52 AM 33.1 °F 28.7 °F 32.0 °F 96% 29.95 in 0.8 mi NNW 4.6 mph - 0.04 in Snow Light Snow
8:29 AM 33.1 °F - 32.0 °F 96% 29.94 in 1.5 mi Calm Calm - 0.03 in Rain Light Rain
8:47 AM 33.8 °F - 32.0 °F 93% 29.94 in 1.5 mi Calm Calm - 0.03 in Rain Light Rain
8:52 AM 33.1 °F - 32.0 °F 96% 29.94 in 1.5 mi Calm Calm - 0.03 in Rain Light Rain
9:52 AM 35.1 °F 32.2 °F 34.0 °F 96% 29.93 in 1.5 mi NW 3.5 mph - 0.01 in Rain Light Rain
10:28 AM 36.0 °F 33.3 °F 34.0 °F 93% 29.94 in 3.0 mi NW 3.5 mph - 0.00 in   Overcast
10:52 AM 36.0 °F 32.1 °F 34.0 °F 93% 29.95 in 3.0 mi NW 4.6 mph - 0.00 in   Overcast
11:52 AM 36.0 °F 32.1 °F 35.1 °F 97% 29.93 in 3.0 mi NW 4.6 mph - N/A   Overcast
12:52 PM 37.9 °F - 35.1 °F 89% 29.90 in 3.0 mi Calm Calm - N/A   Overcast
1:52 PM 39.0 °F - 35.1 °F 86% 29.88 in 3.0 mi Calm Calm - N/A   Overcast
2:52 PM 39.9 °F - 35.1 °F 83% 29.88 in 3.0 mi Calm Calm - N/A   Overcast
3:52 PM 41.0 °F - 35.1 °F 79% 29.88 in 10.0 mi Calm Calm - N/A   Mostly Cloudy
4:52 PM 41.0 °F 38.0 °F 35.1 °F 79% 29.88 in 10.0 mi NNW 4.6 mph - N/A   Mostly Cloudy
5:52 PM 39.9 °F - 35.1 °F 83% 29.89 in 10.0 mi Calm Calm - N/A   Mostly Cloudy
6:52 PM 39.0 °F 35.7 °F 35.1 °F 86% 29.92 in 10.0 mi WNW 4.6 mph - N/A   Mostly Cloudy
7:52 PM 37.9 °F - 34.0 °F 86% 29.93 in 10.0 mi Calm Calm - N/A   Scattered Clouds
8:52 PM 37.0 °F 34.5 °F 35.1 °F 93% 29.96 in 10.0 mi NW 3.5 mph - N/A   Scattered Clouds
9:52 PM 37.9 °F 34.4 °F 34.0 °F 86% 29.96 in 10.0 mi NNE 4.6 mph - N/A   Mostly Cloudy
10:52 PM 37.9 °F 30.9 °F 33.1 °F 83% 29.97 in 10.0 mi North 10.4 mph - N/A   Scattered Clouds
11:52 PM 39.0 °F 31.0 °F 32.0 °F 76% 29.97 in 10.0 mi NNW 13.8 mph 20.7 mph N/A   Mostly Cloudy